Retour au catalogue

FENGYUN 1C DEB

ActifPO
NORAD 36204·DEBRIS·🇨🇳 China

Lancé May 10, 1999 depuis Taiyuan Satellite Launch Center

Loading…

Prochains Passages (prochaines 24 heures)

TLE

FraisSource: Space-Track

Époque: Sep 13, 2026, 04:25 UTC

1 36204U 99025DUD 26256.18409912  .00001840  00000-0  64737-3 0  9998
2 36204  99.3029  19.2676 0019562  88.8756 271.4669 14.36132365983655

Suivez FENGYUN 1C DEB en temps réel avec AllMySat

Download on the App Store